EW7772 Weather Reports


time (UTC)temp
C
wind
direction
speed
KPH
gust
KPH
rain 1hr
cm
rain 24hr
cm
rain mn
cm
humidity
%
barometer
mb
20260508061604 8 68 0.0 1.6 0.00 0.20 0.00 90 1017.6
20260508054546 6 72 0.0 0.0 0.00 0.23 0.00 93 1017.7
20260508053046 6 72 0.0 0.0 0.00 0.23 0.00 95 1017.7
20260508051603 5 72 0.0 0.0 0.00 0.23 0.00 95 1017.6
20260508050043 5 72 0.0 0.0 0.00 0.23 0.00 95 1017.5
20260508044548 4 72 0.0 0.0 0.00 0.23 0.00 95 1017.4
20260508043043 3 72 0.0 0.0 0.00 0.23 0.00 95 1017.4
20260508041542 3 72 0.0 0.0 0.00 0.23 0.00 95 1017.2
20260508040050 3 72 0.0 0.0 0.00 0.23 0.00 94 1017.1
20260508034548 3 72 0.0 0.0 0.00 0.23 0.00 94 1017.1
20260508033046 4 72 0.0 0.0 0.00 0.23 0.00 94 1017.0
20260508031544 4 72 0.0 0.0 0.00 0.23 0.00 94 1016.9
20260508030037 4 72 0.0 0.0 0.00 0.23 0.00 94 1016.8
20260508024559 5 72 0.0 0.0 0.00 0.25 0.00 94 1016.8
20260508023038 5 72 0.0 0.0 0.00 0.25 0.00 94 1016.9
20260508021537 5 72 0.0 0.0 0.00 0.25 0.00 94 1017.0
20260508020035 5 72 0.0 0.0 0.00 0.25 0.00 94 1016.9
20260508014536 5 72 0.0 0.0 0.00 0.25 0.00 94 1017.0
20260508013034 5 72 0.0 1.6 0.00 0.25 0.00 94 1016.9
20260508011532 5 72 0.0 0.0 0.00 0.25 0.00 94 1016.8
20260508010030 5 72 0.0 0.0 0.00 0.25 0.00 94 1016.9
20260508004541 5 72 0.0 3.2 0.00 0.25 0.00 94 1016.9
20260508003026 5 293 0.0 0.0 0.00 0.25 0.00 94 1017.1
20260508001534 5 293 0.0 0.0 0.00 0.25 0.00 94 1017.2
20260508000024 5 293 0.0 0.0 0.00 0.25 0.00 94 1017.3
20260507234523 5 293 0.0 0.0 0.00 0.25 0.00 93 1017.3
20260507233021 6 293 0.0 0.0 0.00 0.25 0.00 93 1017.4
20260507231522 6 293 0.0 0.0 0.00 0.25 0.00 93 1017.6
20260507230018 6 293 0.0 0.0 0.00 0.25 0.00 93 1017.6
20260507224519 6 293 0.0 0.0 0.00 0.28 0.00 93 1017.6
20260507223015 6 293 0.0 0.0 0.00 0.28 0.00 93 1017.5
20260507221514 7 293 0.0 0.0 0.00 0.28 0.00 92 1017.4
20260507220013 7 293 0.0 0.0 0.00 0.28 0.00 92 1017.4
20260507214509 7 293 0.0 0.0 0.00 0.28 0.28 92 1017.3
20260507213011 7 293 0.0 0.0 0.00 0.28 0.28 92 1017.4
20260507211507 7 293 0.0 0.0 0.00 0.28 0.28 91 1017.3
20260507210005 7 293 0.0 0.0 0.00 0.28 0.28 90 1017.3
20260507204503 8 293 0.0 0.0 0.00 0.28 0.28 89 1017.2
20260507203132 8 293 0.0 0.0 0.00 0.28 0.28 88 1017.2
20260507201556 9 273 0.0 0.0 0.00 0.28 0.28 87 1017.0
20260507200057 10 273 0.0 0.0 0.00 0.28 0.28 84 1016.9
20260507194609 10 273 0.0 0.0 0.00 0.28 0.28 82 1016.8
20260507193052 11 273 0.0 0.0 0.00 0.28 0.28 81 1016.6
20260507191551 11 273 0.0 0.0 0.00 0.28 0.28 80 1016.5
20260507190055 11 273 0.0 0.0 0.00 0.28 0.28 79 1016.4
20260507184550 11 273 0.0 0.0 0.00 0.30 0.28 78 1016.3
20260507183047 11 273 0.0 1.6 0.00 0.30 0.28 77 1016.2
20260507181546 11 282 0.0 4.8 0.00 0.30 0.28 76 1016.0
20260507180045 12 267 0.0 0.0 0.00 0.30 0.28 76 1016.0
20260507174547 12 268 0.0 1.6 0.00 0.36 0.28 76 1015.9
20260507173114 12 269 0.0 1.6 0.00 0.36 0.28 75 1015.7
20260507171543 12 263 0.0 3.2 0.00 0.36 0.28 75 1015.6
20260507170041 12 264 0.0 0.0 0.00 0.36 0.28 75 1015.6
20260507164541 12 264 0.0 3.2 0.00 0.43 0.28 74 1015.6
20260507163041 12 263 0.0 1.6 0.00 0.43 0.28 75 1015.5
20260507161547 13 263 1.6 4.8 0.00 0.43 0.28 73 1015.6
20260507160047 13 313 0.0 1.6 0.00 0.43 0.28 74 1015.6
20260507154541 12 315 0.0 6.4 0.00 0.43 0.28 75 1015.5
20260507153039 12 255 0.0 3.2 0.00 0.43 0.28 76 1015.6
20260507151537 12 277 0.0 6.4 0.00 0.43 0.28 76 1015.5
20260507150041 12 277 0.0 4.8 0.00 0.43 0.28 75 1015.4
20260507144537 12 260 0.0 4.8 0.00 1.19 0.28 76 1015.4
20260507143048 12 261 0.0 4.8 0.00 1.19 0.28 76 1015.4
20260507141548 12 284 0.0 6.4 0.00 1.19 0.28 75 1015.5
20260507140035 12 328 0.0 6.4 0.00 1.19 0.28 76 1015.3
20260507134535 12 236 0.0 8.0 0.00 1.24 0.28 76 1015.4
20260507133102 13 240 3.2 8.0 0.03 1.24 0.28 74 1015.3
20260507131536 13 265 0.0 6.4 0.03 1.24 0.28 71 1015.2
20260507130036 13 276 0.0 6.4 0.03 1.24 0.28 73 1015.2
20260507124531 12 283 0.0 6.4 0.03 1.24 0.28 76 1015.2
20260507123038 13 288 0.0 3.2 0.00 1.22 0.25 73 1015.1
20260507121530 13 277 0.0 3.2 0.00 1.22 0.25 75 1015.1
20260507120025 12 235 0.0 3.2 0.00 1.22 0.25 77 1015.2
20260507114522 11 257 0.0 4.8 0.00 1.22 0.25 81 1015.2
20260507113056 11 290 0.0 3.2 0.00 1.22 0.25 83 1015.2
20260507111600 11 248 0.0 4.8 0.00 1.22 0.25 80 1015.3
20260507110059 11 302 0.0 8.0 0.00 1.22 0.25 79 1015.3
20260507104555 11 265 0.0 4.8 0.00 1.22 0.25 81 1015.2
20260507103056 11 251 1.6 6.4 0.00 1.22 0.25 81 1015.1
20260507101552 11 259 0.0 8.0 0.00 1.22 0.25 83 1015.0
20260507100051 11 249 0.0 3.2 0.00 1.22 0.25 87 1015.1
20260507094558 10 221 0.0 8.0 0.00 1.22 0.25 84 1015.1
20260507093046 11 327 0.0 8.0 0.00 1.22 0.25 85 1014.7
20260507091543 10 296 0.0 6.4 0.00 1.22 0.25 90 1014.6
20260507090043 10 288 0.0 6.4 0.03 1.22 0.25 92 1014.5
20260507084541 10 290 0.0 4.8 0.05 1.22 0.25 94 1014.4
20260507083037 9 272 0.0 6.4 0.10 1.22 0.25 95 1014.3
20260507081539 9 295 0.0 3.2 0.13 1.22 0.25 94 1014.1
20260507080034 9 284 0.0 4.8 0.13 1.19 0.23 94 1013.9
20260507074533 9 298 0.0 4.8 0.10 1.17 0.20 94 1013.7
20260507073031 9 284 0.0 6.4 0.05 1.12 0.15 94 1013.5
20260507071529 9 258 0.0 4.8 0.05 1.09 0.15 94 1013.3
20260507070039 9 314 0.0 11.3 0.05 1.09 0.13 93 1013.1
20260507064524 9 314 0.0 3.2 0.03 1.07 0.10 93 1013.0
20260507063022 9 295 0.0 8.0 0.03 1.07 0.10 93 1012.8